sat.trackr.live / text

‹ back to catalog

YAOGAN-31 01B

NORAD 43276 · 2018-034B

PAYLOAD ACTIVE UNKNOWN

§ Identity

Operator
Country
PRC
Launch date
2018-04-10
Launch site
JSC
Launch vehicle
Mass (kg)
RCS (m²)

External: N2YO · Heavens-Above · Gunter

§ Orbital elements

Epoch: 2026-05-25T04:08:17.908800Z

Period
107.03 min
Inclination
63.3930°
Eccentricity
0.0273420
Mean motion
13.45454170 rev/d
Perigee alt
884.9 km
Apogee alt
1,293.2 km
Semi-major
7,467.2 km
B*
-1.0634e-4
RAAN
150.5053°
Arg perigee
7.2775°
Mean anomaly
353.2096°
Rev number
39,912

§ Raw data

YAOGAN-31 01B1 43276U 18034B   26145.17242950 -.00000169  00000+0 -10634-3 0  99902 43276  63.3930 150.5053 0273420   7.2775 353.2096 13.45454170399129

JSON: /api/v1/satellites/43276 · /tle

For live sub-satellite position, see the globe view (requires WebGL).

§ Visibility from observer

Set your observer location to see the next 7 days of passes ≥ 10°. The values pass through the URL so the page stays shareable.

No JS? Fill the form by hand. The geolocation button needs JavaScript.